Lake Annie Weather Center

Moon Phase Calendar



Lake Annie Water Level
Online Cameras

 


      

Current Conditions in Dundee
7/5/2022 8:46:04 AM

81°F
Feels Like 86
Clear
Humidity
76%
Pressure
30.12"
Wind
5.8 mph (E)
Dew Point
73°F
UV Index
2/10 (Low)
Visibility
6 mi

Hourly Forecast

Date & Time Tue, Jul 5
8:00 AM
Tue, Jul 5
9:00 AM
Tue, Jul 5
10:00 AM
Tue, Jul 5
11:00 AM
Tue, Jul 5
12:00 PM
Tue, Jul 5
1:00 PM
Tue, Jul 5
2:00 PM
Tue, Jul 5
3:00 PM
Tue, Jul 5
4:00 PM
Tue, Jul 5
5:00 PM
Tue, Jul 5
6:00 PM
Tue, Jul 5
7:00 PM
Tue, Jul 5
8:00 PM
Tue, Jul 5
9:00 PM
Tue, Jul 5
10:00 PM
Tue, Jul 5
11:00 PM
Wed, Jul 6
12:00 AM
Wed, Jul 6
1:00 AM
Wed, Jul 6
2:00 AM
Wed, Jul 6
3:00 AM
Wed, Jul 6
4:00 AM
Wed, Jul 6
5:00 AM
Wed, Jul 6
6:00 AM
Wed, Jul 6
7:00 AM
Wed, Jul 6
8:00 AM
Wed, Jul 6
9:00 AM
Wed, Jul 6
10:00 AM
Wed, Jul 6
11:00 AM
Wed, Jul 6
12:00 PM
Wed, Jul 6
1:00 PM
Wed, Jul 6
2:00 PM
Wed, Jul 6
3:00 PM
Wed, Jul 6
4:00 PM
Wed, Jul 6
5:00 PM
Wed, Jul 6
6:00 PM
Wed, Jul 6
7:00 PM
Wed, Jul 6
8:00 PM
Wed, Jul 6
9:00 PM
Wed, Jul 6
10:00 PM
Wed, Jul 6
11:00 PM
Thu, Jul 7
12:00 AM
Thu, Jul 7
1:00 AM
Thu, Jul 7
2:00 AM
Thu, Jul 7
3:00 AM
Thu, Jul 7
4:00 AM
Thu, Jul 7
5:00 AM
Thu, Jul 7
6:00 AM
Thu, Jul 7
7:00 AM
Condition
Clear

Clear

Clear

Clear

Clouds

Clouds

Clouds

Clouds

Clouds

Clouds

Clouds

Clouds

Clouds

Clear

Clear

Clear

Clouds

Clouds

Clouds

Clouds

Clouds

Clouds

Clouds

Clouds

Clouds

Clear

Clear

Clear

Clear

Clear

Clouds

Clouds

Clouds

Clouds

Clouds

Clouds

Clouds

Rain

Rain

Clear

Clear

Clouds

Clouds

Clouds

Clouds

Clouds

Clouds

Clouds
Temperature 80°F81°F82°F83°F86°F89°F93°F94°F94°F90°F88°F87°F84°F83°F81°F80°F79°F78°F78°F77°F76°F76°F76°F76°F78°F81°F84°F86°F89°F91°F93°F94°F94°F90°F89°F87°F84°F83°F81°F80°F79°F79°F78°F77°F77°F76°F76°F76°F
Feels Like 85°F86°F87°F89°F91°F94°F96°F98°F98°F96°F94°F93°F91°F88°F86°F84°F79°F80°F79°F78°F78°F78°F77°F77°F80°F87°F90°F92°F95°F97°F99°F99°F99°F97°F95°F94°F90°F88°F86°F84°F79°F80°F79°F79°F78°F78°F78°F77°F
Cloudiness 2%0%6%10%13%16%21%43%48%57%58%58%55%10%8%10%31%44%53%84%45%32%26%22%20%6%6%7%8%9%13%39%49%61%71%73%65%12%9%8%9%16%29%96%73%53%48%42%
Visibility 6 mi6 mi6 mi6 mi6 mi6 mi6 mi6 mi6 mi6 mi6 mi6 mi6 mi6 mi6 mi6 mi6 mi6 mi6 mi6 mi6 mi6 mi6 mi6 mi6 mi6 mi6 mi6 mi6 mi6 mi6 mi6 mi6 mi6 mi6 mi6 mi6 mi6 mi6 mi6 mi6 mi6 mi6 mi6 mi6 mi6 mi6 mi6 mi
Precipitation 0%0%0%0%0%0%0%9%7%5%5%5%7%17%21%17%13%13%13%0%0%0%0%0%0%5%0%0%0%0%0%2%2%5%7%9%23%51%49%49%49%37%33%8%2%0%0%0%
Humidity 79%76%74%69%61%52%43%40%41%51%58%62%67%70%73%77%80%82%85%87%89%90%91%91%85%76%68%61%55%50%46%43%45%53%57%63%68%71%74%77%79%82%83%84%85%86%87%87%
Dew Point 73°F73°F73°F72°F71°F69°F67°F66°F67°F70°F71°F72°F72°F72°F72°F72°F73°F73°F73°F73°F73°F73°F73°F73°F74°F73°F72°F72°F71°F70°F69°F69°F69°F71°F72°F72°F73°F72°F72°F72°F72°F72°F72°F72°F72°F72°F72°F72°F
Pressure 30.12"30.12"30.12"30.12"30.09"30.06"30.03"30.03"30"30"29.97"30"30"30"30.03"30.03"30.03"30.03"30"30"30"30"30"30.03"30.03"30.06"30.06"30.06"30.03"30.03"30"30"29.97"29.97"29.97"29.97"30"30"30"30.03"30.03"30"30.03"30"30"30"30.03"30.03"
Wind Speed 4.8 mph4.9 mph5.1 mph5 mph5.2 mph5.3 mph5.2 mph4.8 mph8.2 mph11.6 mph12.7 mph10.9 mph10.6 mph10 mph9.1 mph7.8 mph7.5 mph6.4 mph5.4 mph4.6 mph4.7 mph4.7 mph4.7 mph4.5 mph4.6 mph5.1 mph5.3 mph5.2 mph5.7 mph6.1 mph6.2 mph7.3 mph10.6 mph11.8 mph10.1 mph10.8 mph9.2 mph8.2 mph8.9 mph8.8 mph7.3 mph5.6 mph4.9 mph5.2 mph5 mph5.1 mph4.8 mph5.1 mph
Wind
Direction
123°
ESE
129°
SE
129°
SE
120°
ESE
100°
E
90°
E
85°
E
85°
E
95°
E
105°
ESE
114°
ESE
110°
ESE
100°
E
100°
E
105°
ESE
111°
ESE
121°
ESE
117°
ESE
115°
ESE
124°
SE
119°
ESE
118°
ESE
114°
ESE
110°
ESE
118°
ESE
118°
ESE
113°
ESE
106°
ESE
100°
E
102°
ESE
106°
ESE
104°
ESE
106°
ESE
117°
ESE
121°
ESE
117°
ESE
104°
ESE
99°
E
121°
ESE
145°
SE
151°
SSE
137°
SE
125°
SE
148°
SSE
153°
SSE
151°
SSE
143°
SE
151°
SSE

Daily Forecast

Date High Low Precip. Humidity
Today
Jul 5

Rain
94 °F
76 °F
56%
52%
Wednesday
Jul 6

Rain
94 °F
76 °F
51%
50%
Thursday
Jul 7

Rain
93 °F
76 °F
67%
45%
Friday
Jul 8

Clouds
94 °F
76 °F
34%
44%
Saturday
Jul 9

Rain
93 °F
78 °F
71%
46%
Sunday
Jul 10

Rain
89 °F
79 °F
71%
58%
Monday
Jul 11

Rain
94 °F
76 °F
36%
44%
Tuesday
Jul 12

Clear
98 °F
78 °F
35%
44%
Wednesday
Jul 13

Rain
96 °F
77 °F
98%
44%
Thursday
Jul 14

Rain
93 °F
74 °F
100%
49%
Friday
Jul 15

Rain
88 °F
74 °F
100%
57%
Saturday
Jul 16

Rain
93 °F
73 °F
82%
45%
Sunday
Jul 17

Clouds
93 °F
77 °F
12%
45%
Monday
Jul 18

Rain
87 °F
75 °F
85%
64%
Tuesday
Jul 19

Rain
79 °F
71 °F
100%
77%
Wednesday
Jul 20

Rain
86 °F
72 °F
55%
54%

Temperature 8-14 Day Outlook



Precipitation 8-14 Day Outlook




Quick Links
Lake Annie News
Lake Annie Photos
Lake Annie Videos




About Us
Contact Us
Site Map
Search Site
Advertise With Us
   
Annie.LakesOnline.com
THE LAKE ANNIE WEBSITE

Copyright 2022, Lakes Online
Privacy    |    Legal